Flag for Chile Weather past 2 weeks in Temuco, Chile

Now
46 °F

Fog.


Feels Like: 46 °F
Forecast: 34 / 47 °F
Wind: 2 mph from North

Location: Temuco Airport

Current Time: Jul 24, 2014 at 2:03:48 PM

Latest Report: Jul 24, 2014 at 1:00 PM


Visibility: 5 mi

Pressure: 30.36 "Hg

Humidity: 82%

Dew point: 41 °F

Location of TemucoLocation

Historic Weather in Temuco — Graph

°F

Temuco temperature yesterday

Maximum temperature yesterday: 48 °F (at 2:00 PM)
Minimum temperature yesterday: 30 °F (at 1:00 AM)
Average temperature yesterday: 37 °F

Past Weeks' High & Low Weather Summary

 TemperatureHumidityPressure
High57 °F (Jul 10, 4:00 PM)100% (Jul 9, 1:00 PM)30.51 "Hg (Jul 9, 1:00 PM)
Low30 °F (Jul 23, 1:00 AM)59% (Jul 12, 2:00 PM)29.74 "Hg (Jul 14, 4:00 AM)
Average46 °F89%30.10 "Hg
* Reported Jul 9 1:00 PM — Jul 24 1:00 PM, Temuco, Weather by CustomWeather, © 2014

Note: Actual official high and low records may vary slightly from our data, if they occured in-between our weather recording intervals... More about our weather records

Advertising

Temuco weather history for previous 24 hours

 ConditionsComfort  
Time TempWeatherWind HumidityBarometerVisibility
1:00 PM
Jul 24
46 °FFog.2 mph82%30.36 "Hg5 mi
12:00 PM43 °FFog.3 mph87%30.42 "Hg5 mi
11:00 AM39 °FOvercast.8 mph93%30.42 "HgN/A
10:00 AM37 °FOvercast.8 mph93%30.42 "HgN/A
9:00 AM36 °FFog.8 mph93%30.42 "Hg4 mi
8:00 AM34 °FFog.3 mph100%30.45 "Hg4 mi
7:00 AM34 °FFog.2 mph100%30.42 "Hg2 mi
6:00 AM34 °FFog.3 mph93%30.42 "Hg4 mi
5:00 AM34 °FOvercast.5 mph93%30.45 "HgN/A
4:00 AM34 °FPassing clouds.6 mph93%30.45 "HgN/A
3:00 AM34 °FPassing clouds.No wind100%30.48 "HgN/A
2:00 AM34 °FFog.3 mph100%30.48 "Hg2 mi
1:00 AM34 °FFog.3 mph100%30.51 "Hg2 mi
12:00 AM36 °FFog.2 mph93%30.51 "Hg1 mi
11:00 PM
Jul 23
34 °FFog.No wind93%30.51 "Hg1 mi
10:00 PM32 °FFog.2 mph100%30.51 "Hg0 mi
9:00 PM36 °FFog.No wind100%30.51 "Hg1 mi
8:00 PM36 °FFog.No wind100%30.51 "Hg3 mi
7:00 PM37 °FPassing clouds.No wind93%30.48 "Hg4 mi
6:00 PM43 °FPassing clouds.No wind81%30.48 "Hg6 mi
5:00 PM48 °FPassing clouds.1 mph71%30.48 "HgN/A
4:00 PM48 °FPartly sunny.3 mph66%30.45 "HgN/A
3:00 PM48 °FPartly sunny.5 mph66%30.45 "HgN/A
2:00 PM48 °FScattered clouds.5 mph66%30.45 "HgN/A
Weather by CustomWeather, © 2014

See weather overviewHow to use our weather pages